Starlink 33726

operational
NORAD ID: 63437 Int'l Des: 2025-069 Owner: SPXS Country: US Constellation: starlink
LEOCIRCULAR

关于 Starlink 33726

正在加载描述...

实时位置

正在加载3D地球...

即将过境

高度历史

Altitude vs Time

uPlot chart will show altitude changes over time

两行轨道根数

1 63437U 25069E 26033.03017615 .00011653 00000-0 40490-3 0 9998
2 63437 53.1601 308.2188 0001239 98.6316 261.4825 15.30204340 47897
Epoch: Feb 2, 2026 • Age: 31 hours

当前状态

高度 493.5 km
速度 7.62 km/s
星下点 -50.68°S, 12.99°W
发射日期 Apr 4, 2025
运行时间 0.8 years
类型 internet

技术详情

分类 Payload
质量 575.00 kg
干质量 530.00 kg
总质量 575.00 kg
长度 0.30 m
直径 4.10 m
跨度 29.00 m
形状 Box + pan
制造商 SPXS
平台类型 Starlink V2MO
阶段状态 In Orbit
所有者/国家 SPXS/US

大型星座

Loading constellations...